Location: Dehesa de la Cepeda
(40.6574°N, 4.3013°W)
Time: 14:32:32
(UTC+00:00)

Transit 2A Rocket - Pass Details

Date: 08 August 2021
Orbit: 586 x 916 km, 66.7° (Epoch: 23 September)

Event Time Altitude Azimuth Distance (km) Brightness Sun altitude
Rises 22:38:26 0° 317° (NW) 3,370 9.5 -28.5°
Reaches altitude 10° 22:41:12 10° 305° (NW) 2,481 8.4 -28.8°
Maximum altitude 22:45:49 25° 252° (WSW) 1,698 6.8 -29.2°
Enters shadow 22:46:21 25° 243° (WSW) 1,716 6.7 -29.2°
